GW1480 Weather Reports


Display with metric or nautical units.
time (UTC)temp
F
wind
direction
speed
MPH
gust
MPH
rain 1hr
in
rain 24hr
in
rain mn
in
humidity
%
barometer
mb
20260901230931 80 237 0.0 0.0 0.00 0.00 0.00 95 1016.9
20260901225719 82 241 0.0 0.0 0.00 0.00 0.00 94 1017.2
20260901225118 83 255 0.0 0.0 0.00 0.00 0.00 93 1017.2
20260901224541 84 238 0.0 0.0 0.00 0.00 0.00 89 1017.2
20260901223905 85 250 0.0 0.0 0.00 0.00 0.00 87 1017.2
20260901222744 86 252 0.0 0.0 0.00 0.00 0.00 85 1017.2
20260901222123 87 245 0.0 0.0 0.00 0.00 0.00 83 1017.2
20260901221519 87 247 0.0 0.0 0.00 0.00 0.00 83 1017.2
20260901220937 87 255 0.0 0.0 0.00 0.00 0.00 82 1017.2
20260901220314 88 256 0.0 0.0 0.00 0.00 0.00 81 1017.6
20260901215708 88 259 0.0 0.0 0.00 0.00 0.00 81 1017.6
20260901215141 88 256 0.0 0.0 0.00 0.00 0.00 81 1017.6
20260901213934 89 235 0.0 0.0 0.00 0.00 0.00 83 1017.6
20260901213334 90 248 0.0 0.0 0.00 0.00 0.00 80 1017.6
20260901212705 90 254 0.0 0.0 0.00 0.00 0.00 81 1017.9
20260901211508 92 241 0.0 0.0 0.00 0.00 0.00 80 1017.9
20260901210914 92 223 0.0 0.0 0.00 0.00 0.00 79 1017.9
20260901210320 92 271 0.0 0.0 0.00 0.00 0.00 69 1017.9
20260901205735 92 133 0.0 2.0 0.00 0.00 0.00 65 1017.9
20260901205142 91 223 0.0 0.0 0.00 0.00 0.00 66 1017.9
20260901204528 91 250 0.0 0.0 0.00 0.00 0.00 72 1017.9
20260901203922 91 218 0.0 0.0 0.00 0.00 0.00 72 1017.9
20260901203314 91 237 0.0 0.0 0.00 0.00 0.00 71 1018.2
20260901202136 89 221 0.0 0.0 0.00 0.00 0.00 72 1017.9
20260901201524 88 219 0.0 0.0 0.00 0.00 0.00 74 1018.2
20260901200908 86 238 0.0 0.0 0.00 0.00 0.00 72 1018.2
20260901200323 85 224 0.0 0.0 0.00 0.00 0.00 78 1018.2
20260901195747 84 233 0.0 0.0 0.00 0.00 0.00 85 1018.2
20260901195146 84 255 0.0 0.0 0.00 0.00 0.00 86 1018.6
20260901194511 84 246 0.0 0.0 0.00 0.00 0.00 86 1018.6
20260901193915 85 230 0.0 0.0 0.00 0.00 0.00 87 1018.6
20260901193312 86 245 0.0 0.0 0.00 0.00 0.00 86 1018.6
20260901192710 87 245 0.0 0.0 0.00 0.00 0.00 85 1018.6
20260901191529 90 226 0.0 0.0 0.00 0.00 0.00 80 1018.6
20260901190909 91 255 0.0 0.0 0.00 0.00 0.00 82 1018.6
20260901190310 92 240 0.0 2.0 0.00 0.00 0.00 76 1018.6
20260901185716 92 245 0.0 0.0 0.00 0.00 0.00 64 1018.9
20260901185125 92 354 4.0 5.0 0.00 0.00 0.00 57 1018.6
20260901184513 92 229 0.0 0.0 0.00 0.00 0.00 66 1018.6
20260901183945 91 270 0.0 0.0 0.00 0.00 0.00 62 1018.6
20260901183325 91 215 3.0 5.0 0.00 0.00 0.00 67 1018.9
20260901182718 90 308 1.0 2.0 0.00 0.00 0.00 63 1018.9
20260901182138 90 243 2.0 2.0 0.00 0.00 0.00 65 1019.3
20260901180914 89 91 1.0 2.0 0.00 0.00 0.00 66 1019.3
20260901180342 89 226 0.0 0.0 0.00 0.00 0.00 67 1019.3
20260901175128 90 223 4.0 7.0 0.00 0.00 0.00 71 1019.3
20260901174519 90 241 4.0 5.0 0.00 0.00 0.00 67 1019.3
20260901173942 90 219 3.0 5.0 0.00 0.00 0.00 69 1019.6
20260901173345 90 243 2.0 5.0 0.00 0.00 0.00 70 1019.6
20260901172735 90 216 1.0 2.0 0.00 0.00 0.00 70 1019.6
20260901171514 89 237 5.0 7.0 0.00 0.00 0.00 69 1019.6
20260901170924 89 74 0.0 0.0 0.00 0.00 0.00 68 1019.6
20260901170319 89 215 0.0 2.0 0.00 0.00 0.00 70 1019.6
20260901165707 89 276 0.0 0.0 0.00 0.00 0.00 70 1019.9
20260901165116 88 203 0.0 0.0 0.00 0.00 0.00 71 1019.9
20260901164521 88 301 2.0 5.0 0.00 0.00 0.00 70 1019.6
20260901163939 88 229 0.0 0.0 0.00 0.00 0.00 72 1019.9
20260901163326 88 358 6.0 10.0 0.00 0.00 0.00 73 1019.6
20260901162727 88 334 3.0 5.0 0.00 0.00 0.00 73 1019.9
20260901162125 88 302 1.0 2.0 0.00 0.00 0.00 74 1019.6
20260901161512 88 293 1.0 5.0 0.00 0.00 0.00 73 1019.6
20260901160937 88 232 0.0 0.0 0.00 0.00 0.00 74 1019.6
20260901160344 87 272 0.0 0.0 0.00 0.00 0.00 75 1019.6
20260901155738 87 232 3.0 5.0 0.00 0.00 0.00 75 1019.6
20260901155108 87 221 0.0 0.0 0.00 0.00 0.00 80 1019.9
20260901154540 86 281 0.0 0.0 0.00 0.00 0.00 77 1019.6
20260901153951 86 285 0.0 0.0 0.00 0.00 0.00 75 1019.6
20260901152708 86 61 0.0 0.0 0.00 0.00 0.00 78 1019.9
20260901151536 86 235 0.0 2.0 0.00 0.00 0.00 82 1020.3
20260901150347 85 240 1.0 2.0 0.00 0.00 0.00 78 1019.9
20260901145129 84 226 0.0 0.0 0.00 0.00 0.00 79 1019.9
20260901143932 83 329 0.0 0.0 0.00 0.00 0.00 78 1019.9
20260901143331 83 204 1.0 2.0 0.00 0.00 0.00 84 1019.9
20260901142146 83 177 0.0 0.0 0.00 0.00 0.00 84 1019.9
20260901141522 82 255 3.0 5.0 0.00 0.00 0.00 84 1019.6
20260901140918 82 276 1.0 2.0 0.00 0.00 0.00 83 1019.9
20260901140326 82 10 2.0 5.0 0.00 0.00 0.00 83 1019.9
20260901135741 82 234 2.0 2.0 0.00 0.00 0.00 87 1019.9
20260901133348 78 159 1.0 2.0 0.00 0.00 0.00 85 1019.6
20260901132707 77 212 0.0 0.0 0.00 0.00 0.00 90 1020.3
20260901131519 75 196 0.0 0.0 0.00 0.00 0.00 97 1020.3
20260901130326 73 131 0.0 0.0 0.00 0.00 0.00 99 1019.9
20260901125711 72 205 0.0 0.0 0.00 0.00 0.00 99 1019.9
20260901125114 72 235 0.0 0.0 0.00 0.00 0.00 99 1020.3
20260901124529 71 225 0.0 0.0 0.00 0.00 0.00 99 1020.3
20260901123317 70 230 0.0 0.0 0.00 0.00 0.00 99 1020.3
20260901122721 69 230 0.0 0.0 0.00 0.00 0.00 99 1020.3
20260901122121 69 222 0.0 0.0 0.00 0.00 0.00 99 1020.3
20260901121534 68 238 0.0 0.0 0.00 0.00 0.00 99 1020.3
20260901120934 68 234 0.0 0.0 0.00 0.00 0.00 99 1019.9
20260901120343 68 234 0.0 0.0 0.00 0.00 0.00 99 1020.3
20260901115106 68 230 0.0 0.0 0.00 0.00 0.00 99 1019.9
20260901113931 68 234 0.0 0.0 0.00 0.00 0.00 99 1019.6
20260901113327 68 235 0.0 0.0 0.00 0.00 0.00 99 1019.6
20260901112749 68 235 0.0 0.0 0.00 0.00 0.00 99 1019.6
20260901112143 68 234 0.0 0.0 0.00 0.00 0.00 99 1019.6
20260901111522 67 229 0.0 0.0 0.00 0.00 0.00 99 1019.3
20260901110924 67 235 0.0 0.0 0.00 0.00 0.00 99 1019.3
20260901110308 67 236 0.0 0.0 0.00 0.00 0.00 99 1019.3
20260901105744 67 234 0.0 0.0 0.00 0.00 0.00 99 1019.3
20260901105136 67 234 0.0 0.0 0.00 0.00 0.00 99 1019.3
20260901104533 67 234 0.0 0.0 0.00 0.00 0.00 99 1019.3
20260901103310 67 234 0.0 0.0 0.00 0.00 0.00 99 1019.3
20260901102120 67 235 0.0 0.0 0.00 0.00 0.00 99 1018.9
20260901101526 67 235 0.0 0.0 0.00 0.00 0.00 99 1018.9
20260901100947 67 236 0.0 0.0 0.00 0.00 0.00 99 1018.9
20260901100328 67 234 0.0 0.0 0.00 0.00 0.00 99 1018.9
20260901095141 68 234 0.0 0.0 0.00 0.00 0.00 99 1018.9
20260901094506 68 239 0.0 0.0 0.00 0.00 0.00 99 1018.9
20260901091527 68 234 0.0 0.0 0.00 0.00 0.00 99 1018.6
20260901090328 69 234 0.0 0.0 0.00 0.00 0.00 99 1018.6
20260901085126 69 230 0.0 0.0 0.00 0.00 0.00 99 1018.6
20260901084511 69 238 0.0 0.0 0.00 0.00 0.00 99 1018.2
20260901083928 69 228 0.0 0.0 0.00 0.00 0.00 99 1018.6
20260901083348 69 207 0.0 0.0 0.00 0.00 0.00 99 1018.6
20260901082727 69 200 0.0 0.0 0.00 0.00 0.00 99 1018.2
20260901082127 69 224 0.0 0.0 0.00 0.00 0.00 99 1018.2
20260901081515 69 218 0.0 0.0 0.00 0.00 0.00 99 1018.6
20260901080936 69 232 0.0 0.0 0.00 0.00 0.00 99 1018.6
20260901080350 69 233 0.0 0.0 0.00 0.00 0.00 99 1018.6
20260901075745 69 235 0.0 0.0 0.00 0.00 0.00 99 1018.6
20260901074532 70 226 0.0 0.0 0.00 0.00 0.00 99 1018.6
20260901073907 70 221 0.0 0.0 0.00 0.00 0.00 99 1018.6
20260901073318 70 235 0.0 0.0 0.00 0.00 0.00 99 1018.2
20260901072722 70 240 0.0 0.0 0.00 0.00 0.00 99 1018.6
20260901072130 70 237 0.0 0.0 0.00 0.00 0.00 99 1018.2
20260901071541 70 226 0.0 0.0 0.00 0.00 0.00 99 1018.6
20260901070311 70 221 0.0 0.0 0.00 0.00 0.00 99 1018.6
20260901065724 70 212 0.0 0.0 0.00 0.00 0.00 99 1018.6
20260901065128 70 218 0.0 0.0 0.00 0.00 0.00 99 1018.6
20260901064544 70 205 0.0 0.0 0.00 0.00 0.00 99 1018.2
20260901063940 70 208 0.0 0.0 0.00 0.00 0.00 99 1018.2
20260901062717 70 217 0.0 0.0 0.00 0.00 0.00 99 1018.2
20260901062132 70 216 0.0 0.0 0.00 0.00 0.00 99 1018.2
20260901061535 70 215 0.0 0.0 0.00 0.00 0.00 99 1018.2
20260901060943 70 224 0.0 0.0 0.00 0.00 0.00 99 1018.6
20260901060321 70 226 0.0 0.0 0.00 0.00 0.00 99 1018.6
20260901055735 70 236 0.0 0.0 0.00 0.00 0.00 99 1018.6
20260901054517 71 215 0.0 0.0 0.00 0.00 0.00 99 1018.6
20260901053950 71 234 0.0 0.0 0.00 0.00 0.00 99 1018.6
20260901053345 71 234 0.0 0.0 0.00 0.00 0.00 99 1018.9
20260901051513 71 230 0.0 0.0 0.00 0.00 0.00 99 1018.6
20260901050908 71 227 0.0 0.0 0.00 0.00 0.00 99 1018.9
20260901050325 71 223 0.0 0.0 0.00 0.00 0.00 99 1018.9
20260901045722 71 223 0.0 0.0 0.00 0.00 0.00 99 1018.6
20260901045114 71 227 0.0 0.0 0.00 0.00 0.00 99 1018.6
20260901044510 71 223 0.0 0.0 0.00 0.00 0.00 99 1018.6
20260901042107 71 227 0.0 0.0 0.00 0.00 0.00 99 1018.9
20260901041548 72 228 0.0 0.0 0.00 0.00 0.00 99 1018.9
20260901040347 72 234 0.0 0.0 0.00 0.00 0.00 99 1019.3
20260901035745 72 234 0.0 0.0 0.00 0.00 0.00 99 1018.9
20260901035136 72 233 0.0 0.0 0.00 0.00 0.00 99 1018.9
20260901033909 72 233 0.0 0.0 0.00 0.00 0.00 99 1018.9
20260901033312 72 233 0.0 0.0 0.00 0.00 0.00 99 1018.9
20260901032710 72 234 0.0 0.0 0.00 0.00 0.00 99 1018.9
20260901031510 72 229 0.0 0.0 0.00 0.00 0.00 99 1018.9
20260901030932 72 232 0.0 0.0 0.00 0.00 0.00 99 1019.3
20260901030349 72 232 0.0 0.0 0.00 0.00 0.00 99 1019.3
20260901025131 72 229 0.0 0.0 0.00 0.00 0.00 99 1018.9
20260901024522 73 229 0.0 0.0 0.00 0.00 0.00 99 1019.3
20260901023947 73 232 0.0 0.0 0.00 0.00 0.00 99 1018.9
20260901023313 73 233 0.0 0.0 0.00 0.00 0.00 99 1018.9
20260901022124 73 229 0.0 0.0 0.00 0.00 0.00 99 1019.3
20260901021528 73 233 0.0 0.0 0.00 0.00 0.00 99 1018.9
20260901020927 73 233 0.0 0.0 0.00 0.00 0.00 99 1018.9
20260901015726 73 234 0.0 0.0 0.00 0.00 0.00 99 1018.9
20260901015140 73 234 0.0 0.0 0.00 0.00 0.00 99 1018.9
20260901014526 73 233 0.0 0.0 0.00 0.00 0.00 99 1018.9
20260901013923 74 234 0.0 0.0 0.00 0.00 0.00 99 1018.9
20260901013343 74 234 0.0 0.0 0.00 0.00 0.00 99 1018.6
20260901012709 74 234 0.0 0.0 0.00 0.00 0.00 99 1018.6
20260901012114 74 233 0.0 0.0 0.00 0.00 0.00 99 1018.9
20260901011528 74 239 0.0 0.0 0.00 0.00 0.00 99 1018.9
20260901010940 74 238 0.0 0.0 0.00 0.00 0.00 99 1018.6
20260901005141 75 232 0.0 0.0 0.00 0.00 0.00 99 1017.9
20260901004538 75 232 0.0 0.0 0.00 0.00 0.00 99 1017.9
20260901003923 75 231 0.0 0.0 0.00 0.00 0.00 99 1017.9
20260901003311 75 234 0.0 0.0 0.00 0.00 0.00 99 1017.9
20260901002738 75 232 0.0 0.0 0.00 0.00 0.00 99 1017.9
20260901002150 75 230 0.0 0.0 0.00 0.00 0.00 99 1017.9
20260901001508 76 230 0.0 0.0 0.00 0.00 0.00 99 1017.6
20260901000923 76 235 0.0 0.0 0.00 0.00 0.00 99 1017.6
20260901000321 76 231 0.0 0.0 0.00 0.00 0.00 99 1017.9
20260831235719 76 233 0.0 0.0 0.00 0.00 0.00 99 1018.2
20260831235146 77 234 0.0 0.0 0.00 0.00 0.00 98 1017.9
20260831233339 78 242 0.0 0.0 0.00 0.00 0.00 97 1017.9
20260831232713 78 236 0.0 0.0 0.00 0.00 0.00 97 1018.2
20260831232146 78 236 0.0 0.0 0.00 0.00 0.00 97 1018.2
20260831231544 79 229 0.0 0.0 0.00 0.00 0.00 96 1017.9